Terug naar catalogus

COSMOS 1538

ActiefMilitairLEO
NORAD 14759·PAYLOAD·🇷🇺 Russia

Gelanceerd Feb 21, 1984 vanaf Plesetsk Cosmodrome

Loading…

Volgende Passages (komende 24 uur)

TLE

VersSource: Space-Track

Epoch: Sep 14, 2026, 20:23 UTC

1 14759U 84019A   26257.84969987  .00000058  00000-0  29635-4 0  9992
2 14759  74.0384 115.1393 0021803 243.2294 116.6628 14.34540344225828

Volg COSMOS 1538 in realtime met AllMySat

Download on the App Store